This demonstration page uses our WeatherBlox Daily Observations layout. Learn more.

Left ArrowRight Arrow

40.92945, -100.16068

Hourly Observations for April 21, 2016

Temp ( °F °C ) Dew Point ( °F °C ) Humidity (%) Winds ( mph kmh ) Pressure ( in mb ) Visibility ( mi km ) Precip ( " mm )
12:15 am 00:15 Cloudy 46 7.8 44 6.5 92 92 WNW 8 13 30.03 1017 10 16 N/A
12:35 am 00:35 Partly Cloudy 46 7.5 43 6 90 90 WNW 7 11 30.00 1016 10 16 N/A
12:55 am 00:55 Partly Cloudy 45 7 42 5.5 90 90 WNW 6 9 30.00 1016 10 16 N/A
1:15 am 01:15 Mostly Cloudy 45 7.3 43 6 92 92 WNW 7 11 30.00 1016 10 16 N/A
1:35 am 01:35 Cloudy 46 7.7 43 6.2 90 90 WNW 7 11 30.00 1016 10 16 N/A
1:55 am 01:55 Mostly Cloudy 46 7.6 43 6.1 90 90 WNW 8 13 30.03 1017 10 16 N/A
2:15 am 02:15 Cloudy 46 8 44 6.5 90 90 WNW 9 15 30.03 1017 10 16 N/A
2:35 am 02:35 Cloudy 46 8 44 6.5 90 90 W 13 20 30.00 1016 10 16 N/A
2:55 am 02:55 Cloudy 47 8.2 44 6.5 89 89 W 10 17 30.00 1016 10 16 N/A
3:15 am 03:15 Partly Cloudy 47 8.5 44 6.5 87 87 W 10 17 30.00 1016 10 16 N/A
3:35 am 03:35 Clear 47 8.5 44 6.5 87 87 W 9 15 30.00 1016 10 16 N/A
3:55 am 03:55 Clear 46 7.9 43 6 88 88 WNW 8 13 30.00 1016 10 16 N/A
4:15 am 04:15 Clear 46 7.7 43 6 89 89 WNW 13 20 30.00 1016 10 16 N/A
4:35 am 04:35 Clear 46 7.8 42 5.8 87 87 WNW 12 19 30.00 1016 10 16 N/A
4:55 am 04:55 Clear 46 7.5 42 5.5 87 87 WNW 10 17 30.00 1016 10 16 N/A
5:15 am 05:15 Clear 45 7.1 41 5.2 88 88 WNW 12 19 30.00 1016 10 16 N/A
5:35 am 05:35 Clear 45 7.1 41 5.1 87 87 WNW 14 22 30.00 1016 10 16 N/A
5:55 am 05:55 Clear 44 6.9 41 4.8 87 87 WNW 15 24 30.00 1016 10 16 N/A
6:15 am 06:15 Clear 44 6.5 40 4.5 87 87 WNW 13 20 30.00 1016 10 16 N/A
6:35 am 06:35 Clear 43 6 40 4.2 88 88 WNW 14 22 30.03 1017 10 16 N/A
6:55 am 06:55 Sunny 42 5.7 39 4 89 89 WNW 12 19 30.06 1018 10 16 N/A
7:15 am 07:15 Sunny 42 5.6 39 4 90 90 WNW 12 19 30.06 1018 10 16 N/A
7:35 am 07:35 Sunny 43 6 40 4.3 89 89 WNW 13 20 30.06 1018 10 16 N/A
7:55 am 07:55 Sunny 44 6.6 40 4.6 87 87 WNW 14 22 30.06 1018 10 16 N/A
8:15 am 08:15 Sunny 45 7.3 41 5 85 85 WNW 13 20 30.03 1017 10 16 N/A
8:35 am 08:35 Partly Cloudy 47 8.1 42 5.3 83 83 WNW 14 22 30.03 1017 10 16 N/A
8:55 am 08:55 Partly Cloudy 48 8.9 42 5.8 81 81 NW 14 22 30.03 1017 10 16 N/A
9:15 am 09:15 Partly Cloudy 50 10.2 44 6.6 79 79 NW 15 24 30.00 1016 10 16 N/A
9:35 am 09:35 Sunny 53 11.9 45 7.4 74 74 NW 16 26 30.00 1016 10 16 N/A
9:55 am 09:55 Sunny 55 12.9 47 8.2 73 73 NW 15 24 30.00 1016 10 16 N/A
10:15 am 10:15 Sunny 57 14.1 48 8.7 70 70 NW 15 24 29.97 1015 10 16 N/A
10:35 am 10:35 Sunny 60 15.3 47 8.5 64 64 NNW 16 26 29.97 1015 10 16 N/A
10:55 am 10:55 Sunny 61 16 47 8.6 62 62 N 15 24 30.00 1016 10 16 N/A
11:15 am 11:15 Sunny 61 16.1 47 8.5 61 61 NNW 16 26 30.00 1016 10 16 N/A
11:35 am 11:35 Sunny 62 16.5 46 7.8 57 57 N 17 28 30.00 1016 10 16 N/A
11:55 am 11:55 Partly Cloudy 62 16.7 46 7.7 56 56 N 20 31 30.00 1016 10 16 N/A
12:15 pm 12:15 Partly Cloudy 64 17.5 46 7.8 53 53 N 21 33 29.97 1015 10 16 N/A
12:35 pm 12:35 Partly Cloudy 64 17.7 46 7.7 52 52 N 22 35 29.97 1015 10 16 N/A
12:55 pm 12:55 Partly Cloudy 65 18.1 47 8.3 53 53 N 17 28 29.97 1015 10 16 N/A
1:15 pm 13:15 Partly Cloudy 65 18.4 47 8.1 51 51 N 18 30 29.97 1015 10 16 N/A
1:35 pm 13:35 Partly Cloudy 66 19 48 8.8 52 52 N 16 26 29.97 1015 10 16 N/A
1:55 pm 13:55 Partly Cloudy 67 19.5 46 8 48 48 N 17 28 29.97 1015 10 16 N/A
2:15 pm 14:15 Sunny 67 19.7 46 7.8 46 46 N 16 26 29.97 1015 10 16 N/A
2:35 pm 14:35 Sunny 68 20.2 47 8.4 47 47 N 17 28 29.91 1013 10 16 N/A
2:55 pm 14:55 Sunny 69 20.4 45 7.4 43 43 N 15 24 29.91 1013 10 16 N/A
3:15 pm 15:15 Sunny 69 20.8 47 8.2 44 44 N 14 22 29.91 1013 10 16 N/A
3:35 pm 15:35 Partly Cloudy 69 20.6 44 6.8 41 41 N 16 26 29.94 1014 10 16 N/A
3:55 pm 15:55 Partly Cloudy 70 20.9 44 6.7 40 40 N 16 26 29.94 1014 10 16 N/A
4:15 pm 16:15 Partly Cloudy 70 21.1 45 7 40 40 N 14 22 29.91 1013 10 16 N/A
4:35 pm 16:35 Partly Cloudy 70 21 44 6.7 40 40 N 16 26 29.91 1013 10 16 N/A
4:55 pm 16:55 Mostly Cloudy 70 21.3 46 7.5 41 41 N 13 20 29.91 1013 10 16 N/A
5:15 pm 17:15 Mostly Cloudy 71 21.5 43 5.9 36 36 NNW 10 17 29.91 1013 10 16 N/A
5:35 pm 17:35 Partly Cloudy 71 21.5 43 6.2 37 37 NNW 14 22 29.91 1013 10 16 N/A
5:55 pm 17:55 Partly Cloudy 71 21.5 42 5.8 36 36 NNW 14 22 29.91 1013 10 16 N/A
6:15 pm 18:15 Partly Cloudy 71 21.5 43 6.1 37 37 N 15 24 29.91 1013 10 16 N/A
6:35 pm 18:35 Partly Cloudy 70 21 44 6.4 39 39 NNW 14 22 29.91 1013 10 16 N/A
6:55 pm 18:55 Sunny 67 19.4 44 6.7 44 44 NNW 13 20 29.94 1014 10 16 N/A
7:15 pm 19:15 Sunny 67 19.5 44 6.9 44 44 N 12 19 29.94 1014 10 16 N/A
7:35 pm 19:35 Sunny 67 19.3 44 6.4 43 43 N 12 19 29.97 1015 10 16 N/A
7:55 pm 19:55 Sunny 64 17.6 46 7.5 52 52 N 9 15 29.97 1015 10 16 N/A
8:15 pm 20:15 Sunny 61 15.9 46 7.8 59 59 N 10 17 30.00 1016 10 16 N/A
8:35 pm 20:35 Clear 60 15.8 46 7.7 59 59 NNE 10 17 30.00 1016 10 16 N/A
8:55 pm 20:55 Clear 59 14.8 46 7.6 62 62 NNE 9 15 30.00 1016 10 16 N/A
9:15 pm 21:15 Clear 57 14 44 6.8 62 62 NNE 10 17 30.00 1016 10 16 N/A
9:35 pm 21:35 Clear 55 13 42 5.6 61 61 NNE 8 13 30.03 1017 10 16 N/A
9:55 pm 21:55 Clear 53 11.9 42 5.3 64 64 NNE 8 13 30.06 1018 7 11 N/A
10:15 pm 22:15 Clear 53 11.5 41 5 65 65 NNE 8 13 30.06 1018 10 16 N/A
10:35 pm 22:35 Clear 51 10.4 41 4.8 69 69 NNE 7 11 30.09 1019 10 16 N/A
10:55 pm 22:55 Clear 49 9.7 40 4.4 70 70 N N/A 30.12 1020 10 16 N/A
11:15 pm 23:15 Clear 49 9.4 39 4 69 69 N N/A 30.12 1020 10 16 N/A
11:35 pm 23:35 Clear 50 9.9 39 4 67 67 N 3 6 30.12 1020 10 16 N/A
11:55 pm 23:55 Clear 47 8.4 38 3.6 72 72 N N/A 30.12 1020 10 16 N/A

Powered by AerisWeather